Torna al catalogo

KNACKSAT-2

AttivoScienzaVLEO
NORAD 67683·PAYLOAD·🇹🇭 Thailand

Lanciato Nov 20, 1998 da Baikonur Cosmodrome

Loading…

Prossimi Passaggi (prossime 24 ore)

TLE

AggiornatoSource: Space-Track

Epoca: Sep 14, 2026, 05:21 UTC

1 67683U 98067XZ  26257.22317614  .00056336  00000-0  48483-3 0  9991
2 67683  51.6255 203.8302 0008001 159.8891 200.2423 15.68709818 34210

Traccia KNACKSAT-2 in tempo reale con AllMySat

Download on the App Store